Regional Weather Roundup
Issued by NWS

Home | Current Version | Previous Version | Graphics & Text | Print | Product List | Glossary On
Versions: 1 2 3 4 5 6 7 8 9 10 11 12 13 14 15 16 17 18 19 20 21 22 23 24 25 26 27 28 29 30 31 32 33 34 35 36 37 38 39 40 41 42 43 44 45 46 47 48 49 50
000
ASUS43 KDTX 270201
RWRMI
MICHIGAN HOURLY REGIONAL WEATHER ROUNDUP
NATIONAL WEATHER SERVICE DETROIT/PONTIAC MI
900 PM EST THU FEB 26 2015

NOTE: "FAIR" INDICATES FEW OR NO CLOUDS BELOW 12,000 FEET WITH NO
SIGNIFICANT WEATHER AND/OR OBSTRUCTION TO VISIBILITY.

MIZ047>049-052>055-059>063-066>070-074>076-081>083-270300-
SOUTHEAST LOWER MICHIGAN

CITY           SKY/WX    TMP DP  RH WIND       PRES   REMARKS
ADRIAN         PTCLDY     9  -1  64 N7        30.30R WCI  -2
ALMA           CLEAR      7  -7  52 N9        30.31R WCI  -6
ANN ARBOR      PTCLDY     9  -2  61 N5        30.28R WCI   1
BAD AXE        PTCLDY    -5  -9  84 CALM      30.30R
CARO           PTCLDY    -3  -9  76 CALM      30.30R
DETROIT CITY   MOCLDY    11  -2  56 N7        30.30R WCI   0
DETROIT        MOCLDY    11   0  61 NW8       30.31R WCI  -1
FLINT          PTCLDY     4  -5  66 CALM      30.29R
GROSSE ILE     MOCLDY    10   1  67 N6        30.29R WCI   1
HILLSDALE      PTCLDY     7  -3  63 N3        30.25R
HOWELL         PTCLDY     5  -3  69 W3        30.27R

CITY           SKY/WX    TMP DP  RH WIND       PRES   REMARKS
JACKSON        PTCLDY     3  -4  72 CALM      30.28R
LAMBERTVILLE   MOCLDY    14   1  57 N5        30.30R WCI   6
LANSING        FAIR       4  -5  66 CALM      30.30R
LAPEER         FAIR       0  -5  80 CALM      30.29R
MASON          FAIR       2  -6  69 CALM      30.28S
MONROE         MOCLDY    10   0  61 N8        30.28S WCI  -1
PONTIAC        CLOUDY     6  -1  73 E3        30.26R
PORT HOPE        N/A      6  -3  66 N5        30.29R WCI  -3
PORT HURON     MOCLDY     5   0  78 NW3       30.30R
TRI CITIES     CLEAR      4  -3  73 CALM      30.32R
TROY           MOCLDY    10  -3  55 CALM      30.31R
SAGINAW HB     PTCLDY     3   0  85 CALM      30.31R
$$
MIZ043>046-050>051-056>058-064>065-071>073-077>080-270300-
SOUTHWEST LOWER MICHIGAN

CITY           SKY/WX    TMP DP  RH WIND       PRES   REMARKS
BATTLE CREEK   CLEAR      8  -7  50 NW5       30.29R WCI   0
BENTON HARBOR  CLEAR     12   2  64 N8        30.34R WCI   0
BIG RAPIDS     CLEAR      2 -10  57 N6        30.31R WCI  -9
COLDWATER      CLEAR      7  -3  63 CALM      30.28S
FREMONT        FAIR       3 -11  53 N8        30.34R WCI -11
HOLLAND        CLEAR     10  -8  44 N7        30.34R WCI  -1
GRAND RAPIDS   PTCLDY     9  -7  48 NW7       30.31R WCI  -2
IONIA          FAIR       4  -8  58 NW3       30.29R
KALAMAZOO      CLEAR      7  -7  52 CALM      30.30R
LUDINGTON      PTCLDY     3  -7  64 CALM      30.37R
MARSHALL       PTCLDY     0  -4  81 CALM      30.28R
MOUNT PLEASANT CLEAR      5  -9  53 NW5       30.32R WCI  -4
MUSKEGON       CLEAR      7  -7  52 N8        30.36R WCI  -6
SOUTH HAVEN    FAIR       8  -2  62 CALM      30.33R
$$
MIZ016>042-270300-
NORTHERN LOWER MICHIGAN

CITY           SKY/WX    TMP DP  RH WIND       PRES   REMARKS
ALPENA         CLEAR     -4 -12  68 W5        30.31R WCI -15
BEAVER ISLAND  CLEAR      0  -7  74 CALM      30.33F
BELLAIRE       CLEAR     -8 -13  80 CALM      30.36R
CADILLAC       CLEAR     -9 -16  70 CALM      30.27R
CHARLEVOIX     CLEAR     -5 -11  77 CALM      30.37R
FRANKFORT      MOCLDY    -6 -10  82 CALM      30.36S
GAYLORD        CLEAR     -9 -15  75 W3        30.25R
GRAYLING       CLEAR    -10 -19  67 W5        30.29R WCI -22
HARBOR SPRINGS CLEAR     -5  -9  81 CALM      30.32S
HOUGHTON LAKE  CLEAR     -2 -12  62 NW9       30.28R WCI -18
MANISTEE       CLEAR     -2 -11  65 CALM      30.36R
OSCODA         PTCLDY     2  -9  60 N5        30.30S WCI  -8
PELLSTON       CLEAR    -13 -15  91 CALM      30.33R
ROGERS CITY    CLEAR      1  -7  68 W5        30.32R WCI  -9
TRAVERSE CITY  CLEAR     -8 -14  74 CALM      30.35R
$$
MIZ007>008-015-270300-
EASTERN UPPER MICHIGAN

CITY           SKY/WX    TMP DP  RH WIND       PRES   REMARKS
KINROSS        CLEAR     -4  -6  92 W7        30.29S WCI -18
MACKINAC ISLAN CLEAR      1  -8  67 NW9       30.31R WCI -14
NEWBERRY       CLEAR     -9 -12  88 SW3       30.30S
S. S. MARIE    CLEAR     -2  -7  79 W7        30.28S WCI -15
MUNISING         N/A     -6 -12  75 S7        30.34S WCI -20
$$
MIZ004>006-011>014-085-270300-
CENTRAL UPPER MICHIGAN

CITY           SKY/WX    TMP DP  RH WIND       PRES   REMARKS
MANISTIQUE     CLEAR     -6  -9  84 NW3       30.33S
ESCANABA       CLEAR     -8 N/A N/A N3        30.35S
MENOMINEE      CLEAR      0  -8  71 CALM      30.35R
SAWYER-GWINN   CLEAR     -6 -11  77 W7        30.29R WCI -20
$$
MIZ001>003-009>011-084-270300-
WESTERN UPPER MICHIGAN

CITY           SKY/WX    TMP DP  RH WIND       PRES   REMARKS
IRON MOUNTAIN  CLEAR     -2 -13  59 N5        30.29R WCI -12
HOUGHTON       CLEAR      2  -5  72 W21       30.27S WCI -20
COPPER HARBOR    N/A      6  -5  60 NW8G18    30.29S WCI  -7
IRONWOOD       CLEAR      0  -6  78 SW8       30.30S WCI -15
$$

ABBREVIATIONS USED IN REMARKS
   TC - TEMPERATURE IN CELSIUS
  WCI - WIND CHILL INDEX
   HX - HEAT INDEX
  VSB - VISIBILITY




USA.gov is the U.S. government's official web portal to all federal, state and local government web resources and services.